Weather in Tarlac City

Philippines     15°29′04″N   120°35′39″E
temp.,
°C
wind,
m/s
gust,
m/s
humid.,
%
clouds,
%
prec.,
mm/h
press.,
hPa
HPBL,
m
14 may, fri
fri1423:00+26se22745 0.0 101143
02:00+25ssw228290 0.0 100936
05:00+24ssw22825 0.0 100936
08:00+30se34555 0.0 1010778
11:00+36ese463581 0.0 10082109
14:00+38se76289 0.0 10062474
17:00+35se87355 0.0 10061326
20:00+29se24565 0.0 1009114
15 may, sat
sat1523:00+27s226838 0.0 101151
02:00+26sw11765 0.0 100914
05:00+25ssw11805 0.0 100916
08:00+30se33595 0.0 1011911
11:00+36ese45355 0.0 10092080
14:00+39se862814 0.0 10062816
17:00+35se87365 0.0 10061326
20:00+30se355441 0.0 1009455
16 may, sun
sun1623:00+27se23695 0.0 101089
02:00+26s117754 0.0 100828
05:00+25ssw11815 0.0 100922
08:00+30se34595 0.0 1010869
11:00+37ese45340 0.0 10082220
14:00+39se762826 0.0 10062972
17:00+36ese443488 0.0 10062217
20:00+30ene355365 0.0 1009260
17 may, mon
mon1723:00+27se23685 0.0 101079
02:00+26ssw11775 0.0 100928
05:00+25ssw118137 0.0 100919
08:00+30se335743 0.0 1010922
11:00+37se33335 0.0 10082109
14:00+40se642574 0.0 10053306
17:00+36ene542987 0.0 10061612
20:00+29ene236311 0.3 100993
18 may, tue
tue1823:00+27sse227374 0.0 101056
02:00+25ssw1180100 0.0 100824
05:00+25sw118158 0.0 100917
08:00+30se33585 0.0 1010880
11:00+37ese34335 0.0 10082154
14:00+39se752664 0.0 10053191
17:00+36e543386 0.0 10051524
20:00+29ene245314 0.1 1009133